KORSAT 7

Satellite information

Favourite Embed

Satellite Type and Status

PAYLOADIN ORBIT

Key statistics

Satellite KORSAT 7 at a glance.

Uptime

528

Days in orbit

Revolutions

≈ 15.0

Per day

Orbit

SSO

Sun Synchronous Orbit

Inclination

97.6

Latest

Satellite identification and parameters

Extended collection of information and parameters for KORSAT 7.

Object identification

Identified? True

Debris? False

Object name: KORSAT 7

International designator: 2023-185B

Object number (NORAD): 58463

Object ID (CCSDS): 58463

Country: SOUTH KOREA (SKOR)

Current information (Y/N): Y

RCS size: LARGE

Orbital parameters

Period: 95.96 minutes

Inclination: 97.6114 deg

SMA: 6943.119 km

Apoapsis: 582.351 km

Periapsis: 547.617 km

RAAN: 198.4916 deg

Eccentricy: 0.0025013

Argument of periapsis: 246.6286 deg

Mean anomaly: 113.2306 deg

Mean motion: 15.00620477 rev/day

Mean motion (dot): 0.00002699 rev/day2

B* drag term: 0.00021694 1/REarth

Two-line elements (TLE)

Creation date: May 12, 2025, 2:31 a.m.

Reference frame: TEME

Reference center: EARTH

Epoch: May 11, 2025, 10:16 p.m. UTC

TLE line 0: 0 KORSAT 7

TLE line 1: 1 58463U 23185B 25131.92831877 .00002699 00000-0 21694-3 0 9993

TLE line 2: 2 58463 97.6114 198.4916 0025013 246.6286 113.2306 15.00620477 79092

Live tracking on map

Real-time ground track for satellite KORSAT 7.

In-orbit conjunctions

There are no conjunctions computed for KORSAT 7, at the moment. Check back to stay up to date, as we update our databases every day.

Go to all conjunctions

Associated space launch

Note: Name of payload is provisional. First launch of an ultimately 5 reconnaissance satellites for the South Korean Defense Acquisition Program Administration (DAPA), with 1 satellite featuring an electro-optical infrared (EO/IR) telescope. The other 4 synthetic aperture radar (SAR) satellites are to be launched at a later date. They will be launched to low Earth orbit between 600 and 700 km by 2025, enabling South Korea’s military to observe the nuclear-armed neighbor’s key military facilities every two hours with 30-50 centimeters resolution imagery, according to a 2019 report produced by the Korea Institute of S&T Evaluation and Planning. The project is lead by the Korean Agency for Defense Development (ADD) and Korea Aerospace Research Institute (KARI), with input from Korea Aerospace Industries (KAI), Hanwha Systems and Thales Alenia Space. ESA's EIRSAT-1 is also onboard as a rideshare passenger. This 2U cubesat carries three experiments, including a novel gamma ray detector to study some of the most luminous explosions in the universe.

KORSAT 7 was lifted into orbit during the mission ‘Falcon 9 Block 5 | 425 Project Flight 1 & rideshare’, on board a Falcon 9 space rocket.

The launch took place on Dec. 1, 2023, 6:19 p.m. from Space Launch Complex 4E.

For more information about the launch, click the button.

Launch to space Falcon 9 Block 5 | 425 Project Flight 1 & rideshare
Falcon 9 Block 5 | 425 Project Flight 1 & rideshare

Agency: N/A

Status: Launch Successful

Launch date: Dec. 1, 2023, 6:19 p.m. UTC

Rocket: Falcon 9

Launch pad: Space Launch Complex 4E

Location: Vandenberg SFB, CA, USA

...

Latest news about this satellite

News about space launch
Launch Roundup: Soyuz resupplies the ISS; SpaceX launches more Starlink satellites

This week, SpaceX continued its incredible launch cadence with two more launches of Falcon 9, a Soyuz 2.1a resupplied the International Space Station (ISS), and three missions launched consecutively out of China.


Newsletter sign-up

Weekly statistics, charts and insights to help you stay on top of the space industry.